TimeEST,TemperatureF,Dew PointF,Humidity,Sea Level PressureIn,VisibilityMPH,Wind Direction,Wind SpeedMPH,Gust SpeedMPH,PrecipitationIn,Events,Conditions,WindDirDegrees,DateUTC
12:15 AM,43.0,30.2,61,30.07,10.0,WNW,4.6,-,N/A,,Clear,300,2012-11-09 05:15:00
12:35 AM,43.0,30.6,62,30.07,10.0,WNW,3.5,-,N/A,,Clear,300,2012-11-09 05:35:00
12:55 AM,42.8,30.7,62,30.08,10.0,WNW,3.5,-,N/A,,Clear,300,2012-11-09 05:55:00
1:15 AM,41.9,30.7,65,30.08,10.0,WNW,5.8,-,N/A,,Clear,290,2012-11-09 06:15:00
1:35 AM,41.9,31.1,66,30.08,10.0,WNW,3.5,-,N/A,,Clear,290,2012-11-09 06:35:00
1:55 AM,42.3,31.5,66,30.09,10.0,WNW,4.6,-,N/A,,Clear,300,2012-11-09 06:55:00
2:15 AM,42.3,31.6,66,30.09,10.0,WNW,3.5,-,N/A,,Clear,300,2012-11-09 07:15:00
2:35 AM,41.4,31.6,68,30.10,10.0,NW,3.5,-,N/A,,Clear,310,2012-11-09 07:35:00
2:55 AM,41.9,31.8,67,30.10,10.0,NW,4.6,-,N/A,,Clear,310,2012-11-09 07:55:00
3:15 AM,41.2,31.6,69,30.11,10.0,NW,3.5,-,N/A,,Clear,310,2012-11-09 08:15:00
3:35 AM,40.3,31.6,71,30.11,10.0,WNW,3.5,-,N/A,,Clear,290,2012-11-09 08:35:00
3:55 AM,37.8,31.5,78,30.11,10.0,Calm,Calm,-,N/A,,Clear,0,2012-11-09 08:55:00
4:15 AM,37.8,31.6,79,30.12,10.0,WNW,3.5,-,N/A,,Clear,290,2012-11-09 09:15:00
4:35 AM,36.0,31.3,83,30.12,10.0,WNW,3.5,-,N/A,,Clear,290,2012-11-09 09:35:00
4:55 AM,37.0,31.5,80,30.13,10.0,Calm,Calm,-,N/A,,Clear,0,2012-11-09 09:55:00
5:15 AM,32.5,30.9,94,30.14,10.0,Calm,Calm,-,N/A,,Clear,0,2012-11-09 10:15:00
5:35 AM,32.0,31.6,99,30.15,10.0,Calm,Calm,-,N/A,,Clear,0,2012-11-09 10:35:00
5:55 AM,32.7,32.0,97,30.15,10.0,Calm,Calm,-,N/A,,Clear,0,2012-11-09 10:55:00
6:15 AM,32.0,32.0,100,30.16,10.0,West,3.5,-,N/A,,Clear,270,2012-11-09 11:15:00
6:35 AM,32.7,31.8,96,30.16,10.0,West,3.5,-,N/A,,Clear,270,2012-11-09 11:35:00
6:55 AM,32.7,31.8,96,30.18,10.0,West,4.6,-,N/A,,Clear,270,2012-11-09 11:55:00
7:15 AM,36.0,32.0,86,30.18,10.0,West,3.5,-,N/A,,Clear,260,2012-11-09 12:15:00
7:35 AM,37.9,32.9,82,30.19,10.0,Calm,Calm,-,N/A,,Clear,0,2012-11-09 12:35:00
7:55 AM,40.1,33.1,76,30.20,10.0,West,3.5,-,N/A,,Clear,270,2012-11-09 12:55:00
8:15 AM,41.9,33.1,71,30.21,10.0,Calm,Calm,-,N/A,,Clear,0,2012-11-09 13:15:00
8:35 AM,43.7,33.8,68,30.21,10.0,WNW,4.6,-,N/A,,Clear,300,2012-11-09 13:35:00
8:55 AM,45.1,34.2,65,30.21,10.0,NW,3.5,-,N/A,,Clear,310,2012-11-09 13:55:00
9:15 AM,47.3,34.7,62,30.21,10.0,NNW,8.1,-,N/A,,Clear,340,2012-11-09 14:15:00
9:35 AM,48.6,35.1,60,30.21,10.0,NW,4.6,-,N/A,,Clear,310,2012-11-09 14:35:00
9:55 AM,50.2,35.1,56,30.22,10.0,NNW,10.4,16.1,N/A,,Clear,330,2012-11-09 14:55:00
10:15 AM,50.9,35.1,55,30.23,10.0,NW,9.2,-,N/A,,Clear,320,2012-11-09 15:15:00
10:35 AM,51.8,34.9,53,30.23,10.0,NW,9.2,16.1,N/A,,Clear,320,2012-11-09 15:35:00
10:55 AM,52.0,34.9,52,30.23,10.0,NW,6.9,16.1,N/A,,Clear,320,2012-11-09 15:55:00
11:15 AM,53.1,35.1,50,30.22,10.0,NNW,9.2,16.1,N/A,,Clear,340,2012-11-09 16:15:00
11:35 AM,53.8,35.4,50,30.21,10.0,WNW,5.8,16.1,N/A,,Clear,300,2012-11-09 16:35:00
11:55 AM,54.9,35.4,48,30.21,10.0,NW,5.8,-,N/A,,Clear,320,2012-11-09 16:55:00
12:15 PM,55.6,35.1,46,30.20,10.0,West,10.4,-,N/A,,Clear,280,2012-11-09 17:15:00
12:35 PM,56.3,35.2,45,30.19,10.0,NNW,8.1,-,N/A,,Clear,340,2012-11-09 17:35:00
12:55 PM,56.7,35.4,45,30.18,10.0,WNW,8.1,-,N/A,,Clear,300,2012-11-09 17:55:00
1:15 PM,58.1,36.0,44,30.18,10.0,WNW,5.8,9.2,N/A,,Clear,300,2012-11-09 18:15:00
1:35 PM,58.1,35.8,43,30.18,10.0,West,4.6,-,N/A,,Clear,280,2012-11-09 18:35:00
1:55 PM,59.0,36.7,43,30.18,10.0,West,5.8,-,N/A,,Clear,280,2012-11-09 18:55:00
2:15 PM,59.2,36.5,43,30.18,10.0,West,4.6,-,N/A,,Clear,260,2012-11-09 19:15:00
2:35 PM,59.5,36.7,43,30.17,10.0,WNW,4.6,-,N/A,,Clear,300,2012-11-09 19:35:00
2:55 PM,59.4,35.8,41,30.17,10.0,West,4.6,-,N/A,,Clear,260,2012-11-09 19:55:00
3:15 PM,59.9,36.1,41,30.17,10.0,Calm,Calm,-,N/A,,Clear,0,2012-11-09 20:15:00
3:35 PM,59.4,36.1,42,30.17,10.0,WNW,4.6,-,N/A,,Clear,290,2012-11-09 20:35:00
3:55 PM,59.0,35.1,41,30.18,10.0,West,5.8,-,N/A,,Clear,280,2012-11-09 20:55:00
4:15 PM,58.1,35.1,42,30.18,10.0,Calm,Calm,-,N/A,,Clear,0,2012-11-09 21:15:00
4:35 PM,57.2,35.1,43,30.18,10.0,Calm,Calm,-,N/A,,Clear,0,2012-11-09 21:35:00
4:55 PM,52.3,37.0,56,30.18,10.0,Calm,Calm,-,N/A,,Clear,0,2012-11-09 21:55:00
5:15 PM,50.0,37.8,63,30.18,10.0,Calm,Calm,-,N/A,,Clear,0,2012-11-09 22:15:00
5:35 PM,47.3,36.9,67,30.19,10.0,Calm,Calm,-,N/A,,Clear,0,2012-11-09 22:35:00
5:55 PM,46.2,36.9,70,30.20,10.0,Calm,Calm,-,N/A,,Clear,0,2012-11-09 22:55:00
6:15 PM,44.6,37.2,75,30.20,10.0,Calm,Calm,-,N/A,,Clear,0,2012-11-09 23:15:00
6:35 PM,42.8,37.4,81,30.21,10.0,Calm,Calm,-,N/A,,Clear,0,2012-11-09 23:35:00
6:55 PM,41.9,37.4,84,30.21,10.0,Calm,Calm,-,N/A,,Clear,0,2012-11-09 23:55:00
7:15 PM,41.0,36.5,84,30.22,10.0,Calm,Calm,-,N/A,,Clear,0,2012-11-10 00:15:00
7:35 PM,40.1,37.4,90,30.22,10.0,Calm,Calm,-,N/A,,Clear,0,2012-11-10 00:35:00
7:55 PM,39.7,37.6,92,30.23,10.0,Calm,Calm,-,N/A,,Clear,0,2012-11-10 00:55:00
8:15 PM,39.4,37.2,92,30.23,10.0,Calm,Calm,-,N/A,,Clear,0,2012-11-10 01:15:00
8:55 PM,37.2,37.0,99,30.23,10.0,Calm,Calm,-,N/A,,Clear,0,2012-11-10 01:55:00
9:15 PM,37.8,37.8,100,30.24,10.0,Calm,Calm,-,N/A,,Clear,0,2012-11-10 02:15:00
9:35 PM,36.7,36.7,100,30.24,10.0,Calm,Calm,-,N/A,,Clear,0,2012-11-10 02:35:00
9:55 PM,36.5,36.5,100,30.24,10.0,Calm,Calm,-,N/A,,Clear,0,2012-11-10 02:55:00
10:15 PM,36.5,36.5,100,30.24,10.0,Calm,Calm,-,N/A,,Clear,0,2012-11-10 03:15:00
10:35 PM,36.7,36.7,100,30.24,10.0,Calm,Calm,-,N/A,,Clear,0,2012-11-10 03:35:00
10:55 PM,37.4,37.4,100,30.24,10.0,Calm,Calm,-,N/A,,Clear,0,2012-11-10 03:55:00
11:15 PM,36.9,36.7,99,30.24,10.0,Calm,Calm,-,N/A,,Clear,0,2012-11-10 04:15:00
11:35 PM,35.8,35.8,100,30.24,10.0,Calm,Calm,-,N/A,,Clear,0,2012-11-10 04:35:00
11:55 PM,35.6,35.6,100,30.24,10.0,Calm,Calm,-,N/A,,Clear,0,2012-11-10 04:55:00